GW1660 Weather Reports


Display with metric or nautical units.
time (UTC)temp
F
wind
direction
speed
MPH
gust
MPH
rain 1hr
in
rain 24hr
in
rain mn
in
humidity
%
barometer
mb
20260505171255 82 219 9.0 13.0 0.00 0.00 0.00 29 1009.4
20260505170751 83 328 10.0 11.0 0.00 0.00 0.00 28 1009.6
20260505170249 83 260 4.0 7.0 0.00 0.00 0.00 31 1009.5
20260505165749 82 218 4.0 6.0 0.00 0.00 0.00 31 1009.6
20260505165246 82 278 2.0 6.0 0.00 0.00 0.00 33 1009.6
20260505164741 81 225 1.0 8.0 0.00 0.00 0.00 34 1009.8
20260505164239 81 297 6.0 16.0 0.00 0.00 0.00 33 1010.0
20260505163737 81 237 6.0 9.0 0.00 0.00 0.00 33 1010.0
20260505163235 81 258 4.0 7.0 0.00 0.00 0.00 34 1010.0
20260505162732 80 9 5.0 13.0 0.00 0.00 0.00 35 1010.1
20260505162229 80 284 7.0 14.0 0.00 0.00 0.00 34 1010.0
20260505161726 80 267 2.0 15.0 0.00 0.00 0.00 35 1010.4
20260505161224 81 295 10.0 14.0 0.00 0.00 0.00 34 1010.2
20260505160721 80 293 5.0 13.0 0.00 0.00 0.00 36 1010.2
20260505160219 80 281 4.0 9.0 0.00 0.00 0.00 35 1010.3
20260505153158 79 279 6.0 8.0 0.00 0.00 0.00 36 1010.3
20260505152654 79 255 7.0 11.0 0.00 0.00 0.00 36 1010.2
20260505152150 78 279 2.0 13.0 0.00 0.00 0.00 36 1010.0
20260505151646 79 295 8.0 10.0 0.00 0.00 0.00 36 1010.1
20260505151143 79 268 4.0 6.0 0.00 0.00 0.00 36 1010.2
20260505150639 78 286 5.0 7.0 0.00 0.00 0.00 37 1010.1
20260505150137 78 228 3.0 4.0 0.00 0.00 0.00 37 1010.1
20260505140605 78 292 6.0 8.0 0.00 0.00 0.00 38 1010.4
20260505125018 71 260 1.0 3.0 0.00 0.00 0.00 48 1011.3
20260505124515 71 173 0.0 1.0 0.00 0.00 0.00 50 1011.4
20260505124011 70 188 2.0 3.0 0.00 0.00 0.00 49 1011.5
20260505123508 69 236 2.0 3.0 0.00 0.00 0.00 50 1011.3
20260505123004 69 274 0.0 4.0 0.00 0.00 0.00 51 1011.3
20260505122501 69 58 1.0 2.0 0.00 0.00 0.00 50 1011.4
20260505121958 69 253 0.0 2.0 0.00 0.00 0.00 54 1011.3
20260505121455 69 275 1.0 1.0 0.00 0.00 0.00 53 1011.4
20260505120951 67 275 0.0 0.0 0.00 0.00 0.00 55 1011.4
20260505120447 64 275 0.0 0.0 0.00 0.00 0.00 65 1011.0
20260505115946 62 275 0.0 0.0 0.00 0.00 0.00 66 1010.8
20260505115443 61 275 0.0 0.0 0.00 0.00 0.00 70 1011.0
20260505114941 60 271 0.0 1.0 0.00 0.00 0.00 72 1011.1
20260505114437 59 275 0.0 1.0 0.00 0.00 0.00 75 1011.1
20260505113934 58 275 1.0 1.0 0.00 0.00 0.00 76 1011.0
20260505113430 57 275 0.0 1.0 0.00 0.00 0.00 78 1010.9
20260505112926 56 275 0.0 1.0 0.00 0.00 0.00 78 1010.6
20260505112424 56 275 0.0 1.0 0.00 0.00 0.00 79 1010.8
20260505111920 55 275 0.0 0.0 0.00 0.00 0.00 78 1010.9
20260505111415 55 275 1.0 1.0 0.00 0.00 0.00 79 1010.6
20260505110911 55 275 0.0 0.0 0.00 0.00 0.00 79 1010.5
20260505110408 54 275 0.0 0.0 0.00 0.00 0.00 80 1010.5
20260505101839 54 275 0.0 0.0 0.00 0.00 0.00 76 1010.3
20260505101334 54 283 0.0 1.0 0.00 0.00 0.00 78 1010.2
20260505100830 55 156 0.0 0.0 0.00 0.00 0.00 76 1010.1
20260505100326 55 156 0.0 0.0 0.00 0.00 0.00 76 1010.1
20260505095822 56 156 0.0 0.0 0.00 0.00 0.00 72 1009.8
20260505095320 57 155 1.0 1.0 0.00 0.00 0.00 71 1009.8
20260505094816 57 155 1.0 1.0 0.00 0.00 0.00 71 1009.8
20260505094313 56 155 0.0 0.0 0.00 0.00 0.00 74 1010.0
20260505093808 55 155 0.0 0.0 0.00 0.00 0.00 74 1009.8
20260505093306 56 155 0.0 0.0 0.00 0.00 0.00 74 1010.0
20260505092802 56 156 0.0 0.0 0.00 0.00 0.00 73 1009.6
20260505092304 56 155 0.0 1.0 0.00 0.00 0.00 73 1009.6
20260505091758 56 156 0.0 0.0 0.00 0.00 0.00 73 1009.7
20260505091256 56 156 0.0 1.0 0.00 0.00 0.00 73 1009.7
20260505090754 56 155 0.0 0.0 0.00 0.00 0.00 72 1009.7
20260505090252 56 155 1.0 1.0 0.00 0.00 0.00 72 1009.7
20260505085749 56 155 0.0 1.0 0.00 0.00 0.00 72 1009.7
20260505085247 56 155 1.0 1.0 0.00 0.00 0.00 72 1009.8
20260505084744 56 155 0.0 2.0 0.00 0.00 0.00 72 1009.8
20260505084243 56 156 1.0 1.0 0.00 0.00 0.00 73 1009.8
20260505083739 57 155 0.0 0.0 0.00 0.00 0.00 72 1009.7
20260505083236 57 155 0.0 1.0 0.00 0.00 0.00 73 1009.7
20260505082732 57 156 0.0 0.0 0.00 0.00 0.00 72 1009.6
20260505082230 57 155 2.0 2.0 0.00 0.00 0.00 72 1009.4
20260505081725 57 155 1.0 1.0 0.00 0.00 0.00 72 1009.4
20260505081223 57 155 0.0 0.0 0.00 0.00 0.00 72 1009.4
20260505080720 58 156 0.0 0.0 0.00 0.00 0.00 71 1009.6
20260505080215 58 155 1.0 1.0 0.00 0.00 0.00 70 1009.6
20260505075711 57 155 0.0 1.0 0.00 0.00 0.00 71 1009.5
20260505075209 57 156 0.0 0.0 0.00 0.00 0.00 72 1009.4
20260505074706 57 156 0.0 0.0 0.00 0.00 0.00 72 1009.6
20260505074203 57 156 0.0 0.0 0.00 0.00 0.00 70 1009.4
20260505073700 58 156 1.0 1.0 0.00 0.00 0.00 69 1009.4
20260505073158 58 156 0.0 0.0 0.00 0.00 0.00 68 1009.1
20260505072654 58 156 0.0 1.0 0.00 0.00 0.00 68 1009.2
20260505072151 58 156 0.0 0.0 0.00 0.00 0.00 69 1009.5
20260505071646 58 156 0.0 0.0 0.00 0.00 0.00 69 1009.3
20260505071144 58 156 0.0 0.0 0.00 0.00 0.00 68 1009.2
20260505070641 59 156 0.0 0.0 0.00 0.00 0.00 68 1009.3
20260505070137 59 156 0.0 0.0 0.00 0.00 0.00 66 1009.3
20260505065633 59 156 0.0 0.0 0.00 0.00 0.00 67 1009.3
20260505065130 59 156 0.0 0.0 0.00 0.00 0.00 67 1009.6
20260505064627 59 156 1.0 1.0 0.00 0.00 0.00 66 1009.4
20260505064125 59 156 1.0 1.0 0.00 0.00 0.00 65 1009.3
20260505063622 59 156 0.0 1.0 0.00 0.00 0.00 63 1009.7
20260505063118 59 156 1.0 1.0 0.00 0.00 0.00 63 1009.6
20260505062615 59 156 0.0 0.0 0.00 0.00 0.00 64 1009.8
20260505062112 59 156 0.0 0.0 0.00 0.00 0.00 65 1009.8
20260505061609 60 156 0.0 0.0 0.00 0.00 0.00 63 1009.7
20260505061108 60 156 0.0 0.0 0.00 0.00 0.00 63 1009.8
20260505060605 59 156 0.0 0.0 0.00 0.00 0.00 62 1009.7
20260505055556 60 156 1.0 1.0 0.00 0.00 0.00 64 1009.7
20260505055053 61 156 0.0 0.0 0.00 0.00 0.00 63 1009.8
20260505054550 61 156 0.0 0.0 0.00 0.00 0.00 60 1009.8
20260505054049 61 156 0.0 1.0 0.00 0.00 0.00 58 1009.8
20260505053545 62 156 1.0 1.0 0.00 0.00 0.00 55 1009.7
20260505053042 62 156 0.0 1.0 0.00 0.00 0.00 55 1009.6
20260505052539 62 156 1.0 1.0 0.00 0.00 0.00 55 1009.8
20260505052037 61 156 1.0 2.0 0.00 0.00 0.00 56 1009.6
20260505051533 61 156 1.0 2.0 0.00 0.00 0.00 56 1009.5
20260505051031 60 156 1.0 3.0 0.00 0.00 0.00 58 1009.6
20260505050529 59 146 2.0 3.0 0.00 0.00 0.00 60 1009.6
20260505041457 58 166 0.0 1.0 0.00 0.00 0.00 60 1009.6
20260505040954 58 166 0.0 0.0 0.00 0.00 0.00 61 1009.5
20260505040452 59 166 0.0 0.0 0.00 0.00 0.00 62 1009.6
20260505035948 59 166 0.0 0.0 0.00 0.00 0.00 60 1009.8
20260505035444 59 166 0.0 0.0 0.00 0.00 0.00 59 1009.7
20260505034942 60 166 0.0 0.0 0.00 0.00 0.00 59 1009.8
20260505034438 60 166 0.0 0.0 0.00 0.00 0.00 57 1009.3
20260505033935 60 166 0.0 0.0 0.00 0.00 0.00 57 1009.3
20260505033432 61 166 0.0 0.0 0.00 0.00 0.00 56 1009.3
20260505032930 62 166 0.0 0.0 0.00 0.00 0.00 55 1009.4
20260505032427 62 166 0.0 1.0 0.00 0.00 0.00 52 1009.3
20260505031923 62 166 1.0 1.0 0.00 0.00 0.00 51 1009.4
20260505031420 62 166 1.0 1.0 0.00 0.00 0.00 51 1009.4
20260505030917 63 166 0.0 1.0 0.00 0.00 0.00 50 1009.2
20260505030413 63 176 1.0 2.0 0.00 0.00 0.00 50 1009.0
20260505025909 63 119 3.0 3.0 0.00 0.00 0.00 50 1009.1
20260505025406 63 198 2.0 3.0 0.00 0.00 0.00 50 1009.2
20260505024905 63 111 2.0 3.0 0.00 0.00 0.00 50 1009.3
20260505024402 63 158 1.0 3.0 0.00 0.00 0.00 50 1009.3
20260505023859 63 185 3.0 4.0 0.00 0.00 0.00 50 1009.6
20260505023356 63 137 3.0 4.0 0.00 0.00 0.00 50 1009.5
20260505022853 62 146 3.0 4.0 0.00 0.00 0.00 50 1009.6
20260505022350 61 130 3.0 4.0 0.00 0.00 0.00 51 1009.5
20260505021848 60 151 0.0 0.0 0.00 0.00 0.00 55 1009.6
20260505021344 61 151 0.0 0.0 0.00 0.00 0.00 55 1009.4
20260505020840 61 150 0.0 0.0 0.00 0.00 0.00 54 1009.4
20260505020335 62 150 0.0 0.0 0.00 0.00 0.00 53 1009.4
20260505015832 62 150 0.0 0.0 0.00 0.00 0.00 52 1009.4
20260505015330 62 150 0.0 0.0 0.00 0.00 0.00 51 1009.3
20260505014827 63 150 0.0 0.0 0.00 0.00 0.00 51 1009.3
20260505014324 63 150 0.0 1.0 0.00 0.00 0.00 50 1009.5
20260505013820 64 150 0.0 0.0 0.00 0.00 0.00 49 1009.4
20260505013318 65 150 0.0 0.0 0.00 0.00 0.00 47 1009.6
20260505012816 65 150 1.0 1.0 0.00 0.00 0.00 45 1009.6
20260505012313 65 125 1.0 1.0 0.00 0.00 0.00 45 1009.3
20260505011809 65 126 0.0 1.0 0.00 0.00 0.00 45 1009.3
20260505011306 65 142 0.0 1.0 0.00 0.00 0.00 45 1009.5
20260505010802 65 130 2.0 2.0 0.00 0.00 0.00 44 1009.3
20260505010258 65 156 1.0 3.0 0.00 0.00 0.00 44 1009.2
20260505005754 65 121 2.0 3.0 0.00 0.00 0.00 44 1009.0
20260505005252 66 159 1.0 3.0 0.00 0.00 0.00 44 1008.9
20260505004749 66 129 3.0 7.0 0.00 0.00 0.00 44 1009.0
20260505004245 66 137 2.0 3.0 0.00 0.00 0.00 44 1009.0
20260505003742 66 149 3.0 4.0 0.00 0.00 0.00 44 1008.8
20260505003240 66 172 2.0 3.0 0.00 0.00 0.00 43 1009.0
20260505002736 66 108 2.0 3.0 0.00 0.00 0.00 43 1008.9
20260505002234 67 165 4.0 4.0 0.00 0.00 0.00 43 1008.8
20260505001731 67 164 2.0 3.0 0.00 0.00 0.00 43 1008.9
20260505001229 67 164 2.0 3.0 0.00 0.00 0.00 42 1008.7
20260505000725 68 211 2.0 3.0 0.00 0.00 0.00 42 1008.8
20260505000223 68 152 2.0 4.0 0.00 0.00 0.00 42 1008.7
20260504235719 68 120 3.0 3.0 0.00 0.00 0.00 41 1008.7
20260504235215 68 159 2.0 8.0 0.00 0.00 0.00 41 1008.7
20260504234713 68 185 2.0 4.0 0.00 0.00 0.00 41 1008.6
20260504234210 69 150 3.0 4.0 0.00 0.00 0.00 40 1008.4
20260504233706 69 144 6.0 8.0 0.00 0.00 0.00 40 1008.6
20260504233202 69 140 2.0 6.0 0.00 0.00 0.00 40 1008.5
20260504232700 70 178 3.0 7.0 0.00 0.00 0.00 39 1008.4
20260504232156 70 210 5.0 7.0 0.00 0.00 0.00 39 1008.6
20260504231653 71 90 5.0 8.0 0.00 0.00 0.00 38 1008.4
20260504231150 73 167 1.0 3.0 0.00 0.00 0.00 35 1008.5
20260504230646 74 207 2.0 4.0 0.00 0.00 0.00 34 1008.4
20260504230145 75 157 1.0 1.0 0.00 0.00 0.00 33 1008.3
20260504225643 75 97 1.0 2.0 0.00 0.00 0.00 32 1008.3
20260504225138 75 263 1.0 6.0 0.00 0.00 0.00 32 1008.5
20260504224635 75 171 0.0 2.0 0.00 0.00 0.00 33 1008.5
20260504224132 75 95 0.0 1.0 0.00 0.00 0.00 33 1008.5
20260504223629 75 269 1.0 3.0 0.00 0.00 0.00 33 1008.5
20260504223125 75 134 1.0 3.0 0.00 0.00 0.00 33 1008.6
20260504222622 75 175 2.0 4.0 0.00 0.00 0.00 33 1008.4
20260504222119 76 275 3.0 4.0 0.00 0.00 0.00 32 1008.6
20260504221616 76 120 0.0 2.0 0.00 0.00 0.00 32 1008.5
20260504221114 75 297 2.0 4.0 0.00 0.00 0.00 33 1008.6
20260504220610 75 224 2.0 6.0 0.00 0.00 0.00 32 1008.6
20260504220108 75 197 1.0 7.0 0.00 0.00 0.00 31 1008.5
20260504215603 75 209 2.0 6.0 0.00 0.00 0.00 31 1008.6
20260504215101 75 194 2.0 6.0 0.00 0.00 0.00 31 1008.5
20260504214557 75 194 0.0 2.0 0.00 0.00 0.00 31 1008.5
20260504214053 76 216 2.0 4.0 0.00 0.00 0.00 30 1008.7
20260504213550 77 193 2.0 3.0 0.00 0.00 0.00 31 1008.7
20260504213047 77 290 1.0 3.0 0.00 0.00 0.00 30 1008.6
20260504212543 77 236 1.0 3.0 0.00 0.00 0.00 30 1008.6
20260504212040 77 174 1.0 6.0 0.00 0.00 0.00 30 1008.6
20260504211537 77 212 2.0 4.0 0.00 0.00 0.00 30 1008.6
20260504211034 77 305 1.0 6.0 0.00 0.00 0.00 30 1008.6
20260504210531 76 309 1.0 4.0 0.00 0.00 0.00 30 1008.6
20260504210028 76 250 2.0 7.0 0.00 0.00 0.00 31 1008.6
20260504205526 76 90 4.0 8.0 0.00 0.00 0.00 30 1008.6
20260504205023 77 257 5.0 9.0 0.00 0.00 0.00 30 1008.7
20260504204521 77 197 1.0 2.0 0.00 0.00 0.00 30 1008.5
20260504204020 77 214 2.0 6.0 0.00 0.00 0.00 28 1008.5
20260504203518 76 287 2.0 7.0 0.00 0.00 0.00 31 1008.8
20260504203015 76 297 3.0 8.0 0.00 0.00 0.00 29 1008.7
20260504202510 76 225 3.0 6.0 0.00 0.00 0.00 29 1008.9
20260504202002 76 282 3.0 6.0 0.00 0.00 0.00 30 1008.7
20260504201459 76 301 3.0 8.0 0.00 0.00 0.00 29 1008.9
20260504200956 75 284 2.0 4.0 0.00 0.00 0.00 31 1009.1
20260504200453 76 298 6.0 8.0 0.00 0.00 0.00 30 1009.0
20260504195949 76 291 3.0 3.0 0.00 0.00 0.00 30 1009.3
20260504195445 76 151 2.0 8.0 0.00 0.00 0.00 30 1009.4
20260504194942 76 274 2.0 6.0 0.00 0.00 0.00 31 1009.5
20260504194438 75 214 2.0 3.0 0.00 0.00 0.00 30 1009.5
20260504193934 75 278 9.0 11.0 0.00 0.00 0.00 31 1009.6
20260504193432 75 238 2.0 7.0 0.00 0.00 0.00 31 1009.7
20260504192930 75 291 5.0 7.0 0.00 0.00 0.00 30 1009.8
20260504192427 75 289 4.0 8.0 0.00 0.00 0.00 31 1009.8
20260504191926 75 172 1.0 2.0 0.00 0.00 0.00 30 1010.0
20260504191424 75 285 2.0 4.0 0.00 0.00 0.00 31 1010.2
20260504190919 74 133 2.0 8.0 0.00 0.00 0.00 32 1010.1
20260504190415 75 156 3.0 7.0 0.00 0.00 0.00 29 1010.3
20260504185912 75 204 2.0 3.0 0.00 0.00 0.00 29 1010.3
20260504185409 74 207 4.0 8.0 0.00 0.00 0.00 31 1010.4
20260504184904 73 274 3.0 6.0 0.00 0.00 0.00 32 1010.4
20260504184401 74 280 4.0 7.0 0.00 0.00 0.00 30 1010.3
20260504183857 74 235 6.0 11.0 0.00 0.00 0.00 31 1010.4
20260504183354 75 289 4.0 7.0 0.00 0.00 0.00 30 1010.6
20260504182851 74 253 4.0 6.0 0.00 0.00 0.00 31 1010.7
20260504182349 74 266 3.0 6.0 0.00 0.00 0.00 30 1010.8
20260504181845 75 275 2.0 4.0 0.00 0.00 0.00 32 1010.7
20260504181343 74 250 2.0 6.0 0.00 0.00 0.00 31 1010.7
20260504180842 74 296 1.0 4.0 0.00 0.00 0.00 31 1010.8
20260504180340 73 176 4.0 4.0 0.00 0.00 0.00 32 1011.0
20260504175838 74 289 2.0 3.0 0.00 0.00 0.00 33 1010.8
20260504175334 74 279 3.0 6.0 0.00 0.00 0.00 33 1011.0
20260504174832 73 181 5.0 6.0 0.00 0.00 0.00 30 1011.0
20260504174330 73 287 2.0 3.0 0.00 0.00 0.00 31 1011.2
20260504173826 73 278 2.0 7.0 0.00 0.00 0.00 35 1011.2
20260504173323 73 289 3.0 7.0 0.00 0.00 0.00 31 1011.3
20260504172820 73 267 3.0 4.0 0.00 0.00 0.00 33 1011.4
20260504172317 73 146 4.0 6.0 0.00 0.00 0.00 34 1011.3
20260504171812 72 290 4.0 6.0 0.00 0.00 0.00 31 1011.5
20260504171310 72 250 1.0 4.0 0.00 0.00 0.00 31 1011.7